Regional Weather Roundup
Issued by NWS Goodland, KS

Home | Current Version | Previous Version | Text Only | Print | Product List | Glossary Off
Versions: 1 2 3 4 5 6 7 8 9 10 11 12 13 14 15 16 17 18 19 20 21 22 23 24 25 26 27 28 29 30 31 32 33 34 35 36 37 38 39 40 41 42 43 44 45 46 47 48 49 50

000
ASUS43 KGLD 311608
RWRGLD

GOODLAND FORECAST AREA HOURLY WEATHER ROUNDUP
NATIONAL WEATHER SERVICE GOODLAND KS
900 AM MST SAT JAN 31 2015

...OFFICIAL OBSERVATIONS...

CITY           SKY/WX    TMP DP  RH WIND       PRES   REMARKS
GOODLAND KS    CLOUDY    36  34  92 CALM      29.88F
HILL CITY KS   CLOUDY    36  33  89 S5        29.99F FOG
IMPERIAL NEB   FOG       33  31  92 E9        29.92F VSB 1/4
MCCOOK NEB     FOG       34  33  96 E6        29.96S VSB 3/4
AKRON CO       FOG       32  32 100 NW8       29.89F VSB 1/4
BURLINGTON CO  FOG       34  32  92 N13       29.88F VSB 1/2
LIMON CO       CLOUDY    32  27  81 NW8       29.88F
$$

...UNOFFICIAL OBSERVATIONS...

CITY           SKY/WX    TMP DP  RH WIND       PRES   REMARKS
GOVE KS          N/A     37  32  82 MISG        N/A
SHARON SPRINGS   N/A     37  36  96 SW8         N/A
KIT CARSON CO    N/A     33  30  90 MISG        N/A
YUMA CO          N/A     33  31  94 CALM        N/A
$$


USA.gov is the U.S. government's official web portal to all federal, state and local government web resources and services.